Location: Unspecified
(52.0000°N, 4.4000°E)
Time: 05:48:19
(UTC+00:00)

Ariane Rocket - Pass Details

Date: 14 May 2025
Orbit: 756 x 764 km, 98.5° (Epoch: 14 June)

Event Time Altitude Azimuth Distance (km) Brightness Sun altitude
Exits shadow 21:10:43 14° 169° (S) 2,024 4.6 -12.2°
Maximum altitude 21:15:05 78° 255° (WSW) 785 3.1 -12.5°
Drops below altitude 10° 21:20:11 10° 343° (NNW) 2,310 6.8 -13.0°
Sets 21:22:31 0° 345° (NNW) 3,242 7.8 -13.2°
